Washington, IA

5:30 PM CDT on September 21, 2017 (GMT -0500)
Washington Municipal

Weather History for KAWG - April, 2014

Change the Weather History Date:

Sunday, April 20, 2014

  Actual Average Record
Temperature  
Mean Temperature 68 °F -  
Max Temperature 82 °F 62 °F 82 °F (2001)
Min Temperature 55 °F 41 °F 28 °F (2013)
Cooling Degree Days 4    
Growing Degree Days 18 (Base 50)    
Moisture  
Dew Point 45 °F    
Average Humidity 46    
Maximum Humidity 63    
Minimum Humidity 28    
Precipitation  
Precipitation 0.00 in - - ()
Sea Level Pressure  
Sea Level Pressure 30.06 in    
Wind  
Wind Speed 11 mph (South)    
Max Wind Speed 18 mph    
Max Gust Speed 28 mph    
Visibility 10 miles    
Events      
Averages and records for this station are not official NWS values.
T = Trace of Precipitation, MM = Missing Value Source: NWS Daily Summary

Daily Weather History Graph

Daily Weather History Graph

Search for Another Location

Airport or City:

Trip Planner

Search our weather history database for the weather conditions in past years. The results will help you decide how hot, cold, wet, or windy it might be!

Date:

Astronomy

Apr. 20, 2014 Rise Set
Actual Time 6:19 AM CDT 7:52 PM CDT
Civil Twilight 5:50 AM CDT 8:21 PM CDT
Nautical Twilight 5:15 AM CDT 8:56 PM CDT
Astronomical Twilight 4:38 AM CDT 9:33 PM CDT
Moon 12:33 AM CDT (4/20) 10:39 AM CDT (4/20)
Length of Visible Light 14h 30m
Length of Day
13h 32m
Waning Gibbous, 68% of the Moon is Illuminated
Apr 20
Waning Gibbous
Apr 22
Last Quarter
Apr 29
New
May 6
First Quarter
May 14
Full

Hourly Weather History & Observations

Time (CDT) Temp. Dew Point Humidity Pressure Visibility Wind Dir Wind Speed Gust Speed Precip Events Conditions
12:15 AM 59.0 °F 39.2 °F 48% 30.14 in 10.0 mi South 9.2 mph - N/A   Clear
12:35 AM 60.8 °F 39.2 °F 45% 30.13 in 10.0 mi South 12.7 mph - N/A   Clear
12:55 AM 59.0 °F 41.0 °F 51% 30.13 in 10.0 mi South 11.5 mph - N/A   Clear
1:15 AM 59.0 °F 41.0 °F 51% 30.13 in 10.0 mi South 11.5 mph - N/A   Clear
1:35 AM 59.0 °F 41.0 °F 51% 30.13 in 10.0 mi South 10.4 mph - N/A   Clear
1:55 AM 57.2 °F 41.0 °F 55% 30.13 in 10.0 mi SSE 9.2 mph - N/A   Clear
2:15 AM 57.2 °F 41.0 °F 55% 30.13 in 10.0 mi South 10.4 mph - N/A   Clear
2:35 AM 57.2 °F 41.0 °F 55% 30.12 in 10.0 mi South 11.5 mph - N/A   Clear
2:55 AM 57.2 °F 42.8 °F 59% 30.12 in 10.0 mi South 11.5 mph - N/A   Clear
3:15 AM 57.2 °F 42.8 °F 59% 30.12 in 10.0 mi South 12.7 mph - N/A   Clear
3:35 AM 57.2 °F 42.8 °F 59% 30.12 in 10.0 mi South 11.5 mph - N/A   Clear
3:55 AM 57.2 °F 41.0 °F 55% 30.12 in 10.0 mi South 10.4 mph - N/A   Clear
4:15 AM 55.4 °F 42.8 °F 63% 30.13 in 10.0 mi South 8.1 mph - N/A   Clear
4:35 AM 55.4 °F 42.8 °F 63% 30.12 in 10.0 mi SSE 10.4 mph - N/A   Clear
4:55 AM 55.4 °F 42.8 °F 63% 30.12 in 10.0 mi SSE 9.2 mph - N/A   Clear
5:15 AM 55.4 °F 42.8 °F 63% 30.12 in 10.0 mi South 10.4 mph - N/A   Clear
5:35 AM 57.2 °F 42.8 °F 59% 30.12 in 10.0 mi South 11.5 mph - N/A   Clear
5:55 AM 55.4 °F 42.8 °F 63% 30.11 in 10.0 mi South 11.5 mph - N/A   Clear
6:15 AM 55.4 °F 42.8 °F 63% 30.11 in 10.0 mi South 9.2 mph - N/A   Clear
6:35 AM 55.4 °F 42.8 °F 63% 30.11 in 10.0 mi South 9.2 mph - N/A   Clear
6:55 AM 55.4 °F 42.8 °F 63% 30.11 in 10.0 mi South 9.2 mph - N/A   Clear
7:15 AM 55.4 °F 42.8 °F 63% 30.12 in 10.0 mi South 9.2 mph - N/A   Clear
7:35 AM 57.2 °F 42.8 °F 59% 30.12 in 10.0 mi South 10.4 mph - N/A   Clear
7:55 AM 59.0 °F 42.8 °F 55% 30.12 in 10.0 mi South 11.5 mph - N/A   Clear
8:15 AM 60.8 °F 42.8 °F 52% 30.12 in 10.0 mi South 13.8 mph - N/A   Clear
8:35 AM 62.6 °F 42.8 °F 48% 30.12 in 10.0 mi South 13.8 mph - N/A   Clear
8:55 AM 64.4 °F 42.8 °F 45% 30.12 in 10.0 mi SSW 12.7 mph - N/A   Clear
9:15 AM 68.0 °F 44.6 °F 43% 30.11 in 10.0 mi South 12.7 mph 19.6 mph N/A   Clear
9:35 AM 68.0 °F 44.6 °F 43% 30.11 in 10.0 mi South 12.7 mph - N/A   Clear
9:55 AM 71.6 °F 44.6 °F 38% 30.11 in 10.0 mi SSW 11.5 mph - N/A   Clear
10:15 AM 71.6 °F 44.6 °F 38% 30.11 in 10.0 mi SSW 10.4 mph - N/A   Clear
10:35 AM 73.4 °F 46.4 °F 38% 30.11 in 10.0 mi SSW 12.7 mph - N/A   Clear
10:55 AM 75.2 °F 46.4 °F 36% 30.11 in 10.0 mi SSW 10.4 mph 19.6 mph N/A   Clear
11:15 AM 75.2 °F 46.4 °F 36% 30.11 in 10.0 mi SW 15.0 mph 20.7 mph N/A   Clear
11:35 AM 77.0 °F 46.4 °F 34% 30.10 in - SW 11.5 mph 19.6 mph N/A   Clear
11:55 AM 78.8 °F 46.4 °F 32% 30.10 in 10.0 mi SSW 13.8 mph 20.7 mph N/A   Clear
12:15 PM 78.8 °F 48.2 °F 34% 30.09 in 10.0 mi SSW 18.4 mph 24.2 mph N/A   Clear
12:35 PM 78.8 °F 48.2 °F 34% 30.08 in 10.0 mi SW 13.8 mph 24.2 mph N/A   Clear
12:55 PM 80.6 °F 48.2 °F 32% 30.07 in 10.0 mi SSW 17.3 mph 27.6 mph N/A   Clear
1:15 PM 80.6 °F 46.4 °F 30% 30.06 in 10.0 mi SW 15.0 mph 23.0 mph N/A   Clear
1:35 PM 80.6 °F 48.2 °F 32% 30.05 in 10.0 mi South 13.8 mph - N/A   Clear
1:55 PM 80.6 °F 46.4 °F 30% 30.05 in 10.0 mi SW 15.0 mph 25.3 mph N/A   Clear
2:15 PM 82.4 °F 46.4 °F 28% 30.04 in 10.0 mi South 13.8 mph 23.0 mph N/A   Clear
2:35 PM 82.4 °F 46.4 °F 28% 30.04 in 10.0 mi SW 16.1 mph 25.3 mph N/A   Clear
2:55 PM 80.6 °F 46.4 °F 30% 30.03 in 10.0 mi SSW 17.3 mph 24.2 mph N/A   Clear
3:15 PM 82.4 °F 46.4 °F 28% 30.02 in 10.0 mi SSW 15.0 mph 25.3 mph N/A   Clear
3:35 PM 82.4 °F 46.4 °F 28% 30.02 in 10.0 mi SSW 11.5 mph 21.9 mph N/A   Clear
3:55 PM 80.6 °F 46.4 °F 30% 30.01 in 10.0 mi SW 12.7 mph 20.7 mph N/A   Clear
4:15 PM 82.4 °F 48.2 °F 30% 30.01 in 10.0 mi SSW 16.1 mph - N/A   Clear
4:55 PM 80.6 °F 46.4 °F 30% 30.00 in 10.0 mi SW 13.8 mph 21.9 mph N/A   Clear
5:15 PM 80.6 °F 46.4 °F 30% 30.00 in 10.0 mi SSW 18.4 mph - N/A   Clear
5:35 PM 78.8 °F 46.4 °F 32% 30.00 in 10.0 mi SSW 16.1 mph - N/A   Clear
5:55 PM 78.8 °F 48.2 °F 34% 30.00 in 10.0 mi SSW 10.4 mph - N/A   Clear
6:15 PM 78.8 °F 48.2 °F 34% 30.00 in 10.0 mi SSW 15.0 mph - N/A   Clear
6:35 PM 78.8 °F 48.2 °F 34% 29.99 in 10.0 mi SW 10.4 mph 18.4 mph N/A   Clear
6:55 PM 77.0 °F 48.2 °F 36% 29.99 in 10.0 mi SSW 10.4 mph - N/A   Clear
7:15 PM 75.2 °F 48.2 °F 38% 29.98 in 10.0 mi SSW 11.5 mph - N/A   Clear
7:35 PM 71.6 °F 48.2 °F 43% 29.98 in 10.0 mi SSW 9.2 mph - N/A   Clear
7:55 PM 69.8 °F 48.2 °F 46% 29.98 in 10.0 mi South 6.9 mph - N/A   Clear
8:15 PM 69.8 °F 48.2 °F 46% 29.98 in 10.0 mi South 5.8 mph - N/A   Clear
8:35 PM 68.0 °F 46.4 °F 46% 29.98 in 10.0 mi South 8.1 mph - N/A   Clear
8:55 PM 68.0 °F 48.2 °F 49% 29.98 in 10.0 mi South 8.1 mph - N/A   Clear
9:15 PM 68.0 °F 48.2 °F 49% 29.98 in 10.0 mi South 8.1 mph - N/A   Clear
9:35 PM 64.4 °F 48.2 °F 56% 29.99 in 10.0 mi South 8.1 mph - N/A   Clear
9:55 PM 66.2 °F 48.2 °F 52% 29.99 in 10.0 mi South 5.8 mph - N/A   Clear
10:15 PM 66.2 °F 48.2 °F 52% 29.99 in 10.0 mi SSW 5.8 mph - N/A   Clear
10:35 PM 66.2 °F 48.2 °F 52% 29.99 in 10.0 mi SSW 6.9 mph - N/A   Clear
10:55 PM 62.6 °F 48.2 °F 59% 29.99 in 10.0 mi SSW 8.1 mph - N/A   Clear
11:15 PM 62.6 °F 48.2 °F 59% 29.99 in 10.0 mi SSW 6.9 mph - N/A   Clear
11:35 PM 64.4 °F 48.2 °F 56% 29.99 in 10.0 mi South 6.9 mph - N/A   Clear
11:55 PM 62.6 °F 50.0 °F 63% 29.99 in 10.0 mi SSW 8.1 mph - N/A   Clear